Theta_e
349 351 347 348 347 345 346 352 341 328 329 335 332 340 334 328 322 321 316 313 312 310 309 308 306 305 305 306 306 306 307 307 308 309 309 310 312 313
343 347 348 344 349 349 347 344 343 334 327 331 334 337 337 328 324 325 318 313 311 310 309 307 304 304 304 304 304 305 305 305 306 306 307 308 310 311
346 344 345 349 344 348 348 346 342 341 335 329 334 337 335 328 325 320 315 315 312 310 309 306 303 303 303 303 303 303 303 303 304 304 305 306 307 309
340 342 343 343 347 349 347 345 342 345 339 328 329 330 330 331 327 319 320 318 314 311 309 305 303 304 304 302 302 301 301 301 302 302 303 304 305 306
340 340 341 343 344 345 346 344 342 341 339 332 326 328 328 326 327 322 323 325 316 312 309 306 303 304 303 302 301 300 300 300 300 301 301 302 302 304
340 340 340 341 343 344 344 344 341 337 335 331 327 323 326 325 326 319 318 321 313 313 314 312 305 304 306 302 301 300 299 300 300 300 300 300 300 301
337 337 340 339 331 336 343 343 340 333 330 327 323 320 322 321 321 321 318 319 320 317 314 313 308 304 303 301 299 299 299 300 300 300 300 299 299 299
334 337 340 333 330 320 321 325 336 339 326 324 319 318 321 319 325 322 321 318 312 321 317 314 314 307 301 299 298 299 299 299 299 299 299 299 299 299
333 336 335 333 331 339 321 318 320 317 321 322 320 318 319 323 324 324 324 320 317 319 318 310 312 305 302 299 299 299 298 298 299 298 298 298 298 298
330 334 337 337 338 337 339 334 334 326 324 326 324 322 324 327 327 327 327 324 322 317 322 307 311 307 304 301 299 299 298 298 298 298 298 297 297 298
328 333 336 336 323 311 335 332 327 324 313 315 316 313 310 311 321 324 319 317 313 313 316 311 309 306 305 305 303 299 299 297 298 298 297 297 297 299
328 332 317 326 312 308 335 328 320 316 317 314 314 309 312 315 311 325 321 315 312 310 315 309 309 305 300 305 306 304 304 299 298 298 297 296 297 301
319 325 329 308 302 304 314 324 320 317 314 318 318 319 320 323 320 325 324 319 313 311 315 314 310 308 306 301 304 305 306 304 306 302 296 296 295 296
322 323 328 303 302 302 309 306 304 311 318 316 315 315 315 317 317 322 325 324 321 319 317 318 310 309 303 302 300 304 305 306 306 305 303 298 296 295
323 320 310 300 299 301 303 301 304 316 315 312 312 313 314 318 320 318 317 319 318 317 313 314 314 314 309 304 302 303 302 304 305 306 303 300 299 297
313 318 311 308 305 309 304 307 315 315 313 311 312 312 313 313 312 312 309 308 308 306 312 314 319 316 307 306 304 302 304 301 304 306 303 301 298 296
316 310 307 307 309 308 309 312 314 312 313 311 312 310 307 310 308 308 307 306 304 304 305 308 315 315 309 310 302 302 302 302 304 305 303 298 298 295
310 308 307 307 307 307 308 310 312 311 313 312 311 308 307 306 305 306 307 306 305 303 303 306 306 303 302 303 301 302 303 302 303 304 304 299 297 297
312 308 307 306 307 308 309 311 310 315 313 312 307 309 306 304 303 305 306 305 303 303 304 305 304 302 298 296 299 294 303 302 304 301 301 300 298 297
315 309 307 307 307 308 310 310 311 312 309 307 307 309 305 303 303 304 305 304 303 304 303 304 303 303 300 297 297 295 291 304 304 302 300 301 293 293
315 311 310 309 309 310 312 311 310 308 307 307 308 306 305 304 305 305 305 297 299 303 301 302 305 294 306 302 295 295 294 294 297 302 302 301 299 297
312 311 310 310 310 310 309 310 308 306 307 308 307 306 306 306 306 306 305 303 304 303 303 305 307 305 303 299 296 295 293 294 294 295 294 295 298 296
310 309 309 310 309 309 308 307 306 306 307 308 306 306 307 308 308 307 306 305 305 304 305 302 303 303 301 301 297 297 297 296 296 295 293 294 294 294
Wind_Speed
11 12 12 11 8 11 10 3 4 4 5 5 5 9 8 11 16 11 12 15 12 11 10 12 13 14 17 19 19 19 20 20 21 21 21 21 22 23
11 12 11 12 10 9 9 8 4 6 4 3 4 8 9 12 16 12 14 16 12 11 10 11 12 13 16 18 18 18 19 19 20 21 21 21 23 24
12 13 13 12 10 8 8 9 8 5 7 2 6 10 11 12 12 12 14 11 9 10 10 11 10 12 15 16 17 17 18 18 19 20 21 22 23 24
14 15 15 10 12 11 8 11 11 9 8 10 9 10 11 11 13 12 11 11 11 12 11 10 8 9 13 16 16 16 17 17 18 19 20 21 23 24
14 14 15 13 11 10 10 9 9 7 9 9 9 9 10 9 12 10 9 8 11 18 12 10 9 9 14 16 16 16 16 16 16 17 18 19 21 22
13 13 15 14 13 12 12 13 9 9 9 8 10 10 11 11 9 9 8 7 11 11 11 10 12 10 12 18 17 18 16 15 14 14 15 14 16 20
15 14 15 16 14 13 10 12 11 9 8 11 10 9 11 12 13 10 10 9 11 9 9 8 9 8 9 14 14 15 16 14 14 14 14 12 11 13
15 14 15 12 14 12 15 15 13 14 12 12 11 12 14 11 12 12 10 10 10 7 9 6 7 7 7 8 6 6 9 13 14 16 15 13 10 10
16 14 14 13 15 16 12 15 15 12 14 12 14 14 13 14 13 12 12 10 9 10 9 7 6 7 8 7 6 3 6 8 12 16 19 15 8 7
16 17 15 16 15 13 13 13 16 15 12 9 12 11 11 14 13 11 10 9 7 9 8 8 7 7 8 6 7 3 3 4 7 14 20 22 15 1
16 17 16 17 15 12 12 11 12 11 2 8 9 11 14 13 12 10 10 11 10 9 9 8 7 6 5 7 7 8 5 5 4 9 14 19 20 4
14 16 18 17 12 16 15 13 12 11 10 7 8 11 13 13 14 11 10 11 10 10 9 8 8 7 5 4 4 7 7 7 3 3 13 17 17 11
14 12 12 11 15 19 17 13 15 13 12 12 9 10 10 11 8 9 10 8 9 9 10 7 8 8 3 8 5 5 4 5 5 6 13 14 21 19
15 12 11 12 15 19 15 12 15 14 12 10 10 10 11 10 10 8 6 3 6 8 11 3 7 7 7 7 7 6 5 5 6 6 9 8 10 18
15 12 7 15 17 14 13 21 21 12 12 11 10 11 12 11 10 10 10 11 13 12 9 5 6 6 6 6 7 7 6 5 5 5 9 10 10 10
14 9 11 13 15 12 14 19 13 13 14 11 10 12 11 11 10 9 10 10 10 9 7 4 6 6 6 6 7 6 4 4 3 6 7 8 9 11
8 6 6 7 8 10 12 15 12 12 11 11 7 10 14 12 10 10 10 10 10 11 9 8 6 7 7 6 8 7 7 5 3 5 7 8 10 10
4 7 9 10 12 12 14 13 13 17 14 12 12 12 14 13 12 11 11 10 11 11 11 10 9 10 8 8 13 8 7 6 6 4 6 7 8 10
7 8 10 11 11 12 13 13 13 14 14 13 14 13 13 12 14 12 12 11 11 11 10 10 10 10 11 9 5 14 6 6 5 6 6 6 8 7
9 10 10 11 12 12 12 12 13 12 13 13 14 13 13 13 13 12 12 13 12 12 11 10 10 9 9 10 8 4 10 1 2 6 7 8 7 14
10 11 12 13 13 14 13 13 13 11 12 13 14 13 13 13 13 12 12 13 13 12 12 10 8 2 11 12 9 7 6 12 10 5 3 5 9 8
9 11 11 13 15 15 14 14 14 14 13 12 13 13 13 12 12 14 13 14 12 11 10 10 9 9 9 9 10 11 7 7 8 11 11 7 3 3
11 12 12 13 14 16 17 15 16 14 15 14 14 14 14 13 13 12 13 13 12 12 12 11 9 9 9 9 11 10 13 10 7 7 6 5 8 9
Wind_Direction
246 243 241 252 251 239 259 238 196 176 175 182 161 159 165 120 145 156 145 145 137 120 96 75 53 42 37 31 23 18 18 12 10 15 18 15 14 11
256 242 239 248 229 234 240 250 216 208 168 161 218 158 163 130 169 150 140 147 143 129 105 83 63 49 44 37 28 23 22 16 14 17 20 18 16 13
255 266 259 241 244 230 233 231 224 179 226 138 163 154 150 147 167 119 147 152 152 143 117 97 80 61 51 43 34 31 27 22 21 22 22 21 20 17
261 252 256 257 236 237 226 238 224 209 206 167 165 158 162 149 147 153 169 169 158 157 138 124 110 88 63 51 41 36 33 27 26 27 24 23 25 24
241 263 260 248 248 235 224 225 228 218 206 164 148 152 165 146 155 160 183 178 150 149 158 151 128 121 81 61 45 39 37 29 24 27 23 23 27 30
251 240 258 256 248 233 229 219 219 205 162 167 155 156 169 159 165 166 184 185 142 177 179 158 151 127 102 75 47 39 40 29 19 23 20 12 23 33
266 255 241 242 247 226 221 222 200 196 170 169 165 159 170 171 178 170 190 191 169 173 167 171 165 184 87 68 65 45 45 37 24 23 26 11 4 22
276 267 261 246 240 210 218 214 208 190 182 176 171 173 178 176 180 177 193 181 182 167 167 186 160 104 78 86 84 52 28 32 28 23 24 21 2 10
266 268 271 257 242 244 211 210 179 193 189 172 179 179 174 179 178 182 195 179 188 154 173 151 154 128 123 129 134 87 57 18 23 26 18 20 21 350
256 255 257 257 256 251 233 209 192 188 197 173 185 182 179 171 184 182 170 167 117 146 195 159 163 146 139 137 169 180 111 29 16 35 20 11 12 205
248 247 248 245 240 200 222 202 196 189 190 198 173 180 158 171 164 165 162 173 168 168 178 155 161 145 165 158 151 201 197 111 343 72 38 19 2 102
250 245 235 241 216 177 196 188 185 176 161 153 152 130 145 149 154 169 174 181 170 164 184 168 154 151 146 137 121 171 178 168 203 76 71 44 26 26
251 247 249 216 177 177 189 180 180 163 161 142 142 140 144 151 166 182 181 195 171 177 157 193 167 199 65 141 122 97 64 133 89 128 96 72 64 52
261 251 246 175 185 182 178 154 149 154 153 142 139 153 147 161 169 172 176 287 150 138 145 233 166 181 148 145 137 122 98 73 69 60 53 105 98 74
247 263 196 178 176 175 167 147 153 161 153 140 164 158 154 165 146 108 97 91 91 113 140 205 170 151 168 142 139 135 122 83 79 72 73 54 45 41
234 232 192 179 178 169 150 153 166 163 156 161 173 163 137 136 138 144 147 136 127 129 151 185 119 173 138 119 128 137 127 99 80 90 85 84 63 55
191 140 144 149 156 153 156 165 160 158 149 149 168 165 137 144 151 162 161 151 149 151 147 144 156 93 78 133 131 127 115 104 113 122 98 84 81 61
157 161 161 161 165 165 167 168 169 166 158 164 170 169 145 155 158 164 163 159 150 152 156 148 137 131 121 90 27 132 129 133 137 110 116 98 87 99
177 171 163 164 168 171 173 169 163 163 171 171 159 161 155 159 160 165 161 156 155 152 148 152 155 160 157 148 114 33 152 145 153 113 96 81 95 71
186 172 165 165 163 169 169 161 156 166 174 150 152 166 162 155 162 166 162 159 156 151 156 165 172 178 170 148 149 94 18 265 194 144 134 104 65 108
205 172 166 166 171 167 165 156 148 161 154 152 167 163 160 162 168 163 161 156 151 158 160 166 164 140 98 105 125 130 76 41 51 13 355 180 165 166
201 169 170 172 171 164 160 161 150 155 155 172 175 161 158 171 169 164 159 156 159 160 163 126 137 119 134 152 140 134 131 111 82 84 70 41 10 101
186 170 169 170 166 162 157 163 152 162 158 180 167 156 169 166 166 156 156 164 154 162 142 143 147 151 168 152 144 148 144 156 161 127 89 85 99 103